{"data":{"norad_id":59067,"epoch":"2026-05-25T04:36:08.650656Z","epoch_age_seconds":58715,"freshness":"FRESH","line1":"1 59067U 24039S   26145.19176679  .00003540  00000+0  27709-3 0  9998","line2":"2 59067  95.3916 219.1947 0146918  49.6572 311.7377 14.93140217121282","mean_motion":14.93140217,"eccentricity":0.0146918,"inclination_deg":95.3916,"raan_deg":219.1947,"arg_perigee_deg":49.6572,"mean_anomaly_deg":311.7377,"bstar":0.00027709,"rev_number":12128,"period_min":96.441043085239,"perigee_km":485.80401908537,"apogee_km":690.49864897721,"semimajor_km":6966.2883340313,"source":"CELESTRAK","updated_at":"2026-05-25T13:38:25.534703Z"}}